This demonstration page uses our WeatherBlox Daily Observations layout. Learn more.

Left ArrowRight Arrow

39.12711, -84.51439

Hourly Observations for June 30, 2018

Temp ( °F °C ) Dew Point ( °F °C ) Humidity (%) Winds ( mph kmh ) Pressure ( in mb ) Visibility ( mi km ) Precip ( " mm )
12:53 am 00:53 Clear 71 21.7 71 21.7 100 100 N N/A 30.04 1017 7 11 N/A
1:53 am 01:53 Clear with Mist and Fog 70 21.1 70 21.1 100 100 N N/A 30.03 1017 3 5 N/A
2:53 am 02:53 Clear 70 21.1 70 21.1 100 100 N N/A 30.04 1017 8 13 N/A
3:27 am 03:27 Clear with Mist and Fog 69 20.6 69 20.6 100 100 N N/A 30.00 1016 2 3 N/A
3:38 am 03:38 Clear with Fog 69 20.6 69 20.6 100 100 N N/A 30.00 1016 1 1 N/A
3:45 am 03:45 Clear with Mist and Fog 69 20.6 69 20.6 100 100 N N/A 30.00 1016 2 3 N/A
3:51 am 03:51 Mostly Clear 70 21 70 21 100 100 N N/A 30.00 1016 7 11 N/A
3:52 am 03:52 Mostly Clear 69 20.6 69 20.6 100 100 N N/A 30.03 1017 8 13 N/A
4:07 am 04:07 Partly Cloudy with Mist and Fog 69 20.6 69 20.6 100 100 N N/A 30.00 1016 2 2 N/A
4:09 am 04:09 Mostly Cloudy with Mist and Fog 69 20.6 69 20.6 100 100 N N/A 30.03 1017 1 1 N/A
4:19 am 04:19 Mostly Cloudy with Fog 69 20.6 69 20.6 100 100 N N/A 30.00 1016 0 0 N/A
4:33 am 04:33 Mostly Cloudy with Fog 69 20.6 69 20.6 100 100 N N/A 30.03 1017 1 1 N/A
4:41 am 04:41 Mostly Cloudy with Fog 69 20.6 69 20.6 100 100 N N/A 30.03 1017 0 0 N/A
4:53 am 04:53 Mostly Cloudy with Fog 69 20.6 69 20.6 100 100 N N/A 30.04 1017 0 0 N/A
5:02 am 05:02 Mostly Cloudy with Fog 69 20.6 69 20.6 100 100 N N/A 30.03 1017 0 0 N/A
5:53 am 05:53 Mostly Cloudy with Fog 69 20.6 69 20.6 100 100 N N/A 30.04 1017 0 0 N/A
6:53 am 06:53 Mostly Cloudy with Fog 70 21.1 70 21.1 100 100 S 3 6 30.05 1018 5 8 N/A
7:36 am 07:36 Mostly Cloudy with Mist and Fog 70 21.1 70 21.1 100 100 SW 3 6 30.03 1017 1 2 N/A
7:46 am 07:46 Partly Cloudy with Patchy Fog 70 21.1 70 21.1 100 100 SW 3 6 30.03 1017 3 5 N/A
7:53 am 07:53 Partly Cloudy with Patchy Fog 71 21.7 71 21.7 100 100 N N/A 30.06 1018 5 8 N/A
8:13 am 08:13 Mostly Sunny 72 22.2 72 22.2 100 100 N N/A 30.06 1018 10 16 N/A
8:53 am 08:53 Sunny 76 24.4 73 22.8 91 91 N N/A 30.07 1018 10 16 N/A
9:53 am 09:53 Sunny 81 27.2 73 22.8 77 77 SSW 5 7 30.08 1019 10 16 N/A
10:53 am 10:53 Sunny 85 29.4 73 22.8 68 68 S 6 9 30.07 1018 10 16 N/A
11:53 am 11:53 Sunny 87 30.6 73 22.8 63 63 S 7 11 30.06 1018 10 16 N/A
12:53 pm 12:53 Sunny 89 31.7 73 22.8 59 59 N N/A 30.06 1018 10 16 N/A
1:53 pm 13:53 Partly Cloudy 91 32.8 75 23.9 59 59 SE 5 7 30.06 1018 10 16 N/A
2:53 pm 14:53 Partly Cloudy 91 32.8 73 22.8 56 56 VRB 7 11 30.04 1017 10 16 N/A
3:53 pm 15:53 Partly Cloudy 92 33.3 71 21.7 51 51 N N/A 30.03 1017 10 16 N/A
4:53 pm 16:53 Partly Cloudy 92 33.3 73 22.8 54 54 S 7 11 30.01 1016 10 16 N/A
5:53 pm 17:53 Sunny 91 32.8 72 22.2 54 54 S 6 9 30.00 1016 10 16 N/A
6:53 pm 18:53 Sunny 90 32.2 72 22.2 56 56 SSE 7 11 29.98 1015 10 16 N/A
7:53 pm 19:53 Sunny 88 31.1 71 21.7 57 57 SSE 6 9 29.98 1015 10 16 N/A
8:53 pm 20:53 Sunny 80 26.7 75 23.9 85 85 N N/A 29.97 1015 10 16 N/A
9:53 pm 21:53 Clear 76 24.4 73 22.8 91 91 N N/A 29.98 1015 10 16 N/A
10:53 pm 22:53 Clear 76 24.4 72 22.2 88 88 N N/A 29.98 1015 10 16 N/A
11:53 pm 23:53 Clear 73 22.8 72 22.2 96 96 N N/A 29.98 1015 7 11 N/A

Powered by AerisWeather